Location: Newark
(47.5833°N, 8.1500°E)
Time: 20:48:18
(UTC+00:00)

Vanguard 2 Rocket - Pass Details

Date: 31 October 2020
Orbit: 553 x 3326 km, 32.9° (Epoch: 04 December)

Event Time Altitude Azimuth Distance (km) Brightness Sun altitude
Rises 17:44:44 0° 227° (SW) 2,730 10.2 -16.2°
Reaches altitude 10° 17:48:27 10° 189° (S) 1,842 8.6 -16.9°
Maximum altitude 17:49:40 11° 171° (S) 1,806 8.4 -17.1°
Drops below altitude 10° 17:50:55 10° 153° (SSE) 1,933 8.4 -17.3°
Enters shadow 17:51:09 10° 150° (SSE) 1,973 8.4 -17.3°
